This demonstration page uses our WeatherBlox Daily Observations layout. Learn more.

Left ArrowRight Arrow

Hourly Observations for March 17, 2020

Temp ( °F °C ) Dew Point ( °F °C ) Humidity (%) Winds ( mph kmh ) Pressure ( in mb ) Visibility ( mi km ) Precip ( " mm )
12:53 am 00:53 Cloudy 46 7.8 38 3.3 73 73 N N/A 30.17 1022 10 16.0934 N/A
1:53 am 01:53 Cloudy 45 7.2 39 3.9 80 80 SSW 3 6 30.16 1021 10 16.0934 0.001 0.001
2:53 am 02:53 Cloudy 45 7.2 39 3.9 80 80 SW 3 6 30.15 1021 10 16.0934 0.01 0.254
3:53 am 03:53 Cloudy 45 7.2 39 3.9 80 80 WSW 5 7 30.15 1021 10 16.0934 N/A
4:53 am 04:53 Cloudy 44 6.7 39 3.9 83 83 SW 3 6 30.14 1021 10 16.0934 0.001 0.001
5:53 am 05:53 Cloudy 44 6.7 40 4.4 85 85 W 6 9 30.16 1021 10 16.0934 N/A
6:30 am 06:30 Cloudy 44 6.7 40 4.4 85 85 WNW 7 11 30.18 1022 9 14.48406 N/A
6:38 am 06:38 Cloudy 44 6.7 40 4.4 85 85 W 7 11 30.19 1022 9 14.48406 N/A
6:53 am 06:53 Mostly Cloudy 44 6.7 40 4.4 85 85 WNW 8 13 30.18 1022 8 12.87472 N/A
7:53 am 07:53 Cloudy 43 6.1 40 4.4 89 89 WNW 10 17 30.21 1023 8 12.87472 N/A
8:53 am 08:53 Cloudy 43 6.1 39 3.9 86 86 WNW 10 17 30.23 1024 8 12.87472 N/A
9:35 am 09:35 Cloudy 43 6.1 37 2.8 80 80 WNW 13 20 30.26 1025 10 16.0934 N/A
9:53 am 09:53 Cloudy 43 6.1 37 2.8 80 80 NW 13 20 30.27 1025 10 16.0934 N/A
10:12 am 10:12 Cloudy 43 6.1 37 2.8 80 80 WNW 9 15 30.28 1025 10 16.0934 N/A
10:27 am 10:27 Cloudy 44 6.7 36 2.2 73 73 WNW 10 17 30.29 1026 10 16.0934 N/A
10:53 am 10:53 Cloudy 43 6.1 35 1.7 74 74 WNW 13 20 30.29 1026 10 16.0934 N/A
11:53 am 11:53 Cloudy 44 6.7 33 0.6 65 65 WNW 10 17 30.3 1026 10 16.0934 N/A
12:05 pm 12:05 Cloudy 45 7.2 33 0.6 63 63 WNW 8 13 30.32 1027 10 16.0934 N/A
12:53 pm 12:53 Cloudy 45 7.2 33 0.6 63 63 WNW 9 15 30.31 1026 10 16.0934 N/A
1:53 pm 13:53 Cloudy 47 8.3 34 1.1 61 61 NNW 8 13 30.31 1026 10 16.0934 N/A
2:53 pm 14:53 Cloudy 47 8.3 35 1.7 63 63 NW 7 11 30.3 1026 10 16.0934 N/A
3:53 pm 15:53 Cloudy 50 10 35 1.7 57 57 WNW 9 15 30.3 1026 10 16.0934 N/A
4:53 pm 16:53 Cloudy 50 10 35 1.7 57 57 WNW 9 15 30.29 1026 10 16.0934 N/A
5:53 pm 17:53 Mostly Cloudy 52 11.1 36 2.2 55 55 NNW 6 9 30.3 1026 10 16.0934 N/A
6:53 pm 18:53 Partly Cloudy 51 10.6 35 1.7 54 54 VRB 3 6 30.31 1026 10 16.0934 N/A
7:53 pm 19:53 Clear 45 7.2 36 2.2 71 71 N N/A 30.32 1027 10 16.0934 N/A
8:53 pm 20:53 Clear 40 4.4 35 1.7 83 83 N N/A 30.33 1027 10 16.0934 N/A
9:53 pm 21:53 Clear 38 3.3 34 1.1 86 86 N N/A 30.35 1028 10 16.0934 N/A
10:53 pm 22:53 Clear 37 2.8 34 1.1 89 89 ESE 3 6 30.35 1028 10 16.0934 N/A
11:53 pm 23:53 Clear 36 2.2 33 0.6 89 89 N N/A 30.35 1028 10 16.0934 N/A

Powered by AerisWeather